Tracking 19564 objects as of 18-Mar-2019
HD Live streaming from Space Station
objects crossing your sky now

WNISAT 1

Track WNISAT 1 now!
10-day predictions
WNISAT 1 is classified as:


NORAD ID: 39423
Int'l Code: 2013-066H
Perigee: 599.2 km
Apogee: 846.6 km
Inclination: 97.8 °
Period: 99.1 minutes
Semi major axis: 7093 km
RCS: Unknown
Launch date: November 21, 2013
Source: Japan (JPN)
Launch site: Orenburg, Russia (OREN)

Uplink (MHz):
Downlink (MHz): 467.674
Beacon (MHz):
Mode:
Call sign:
Status:

aabbcc
Your satellite tracking list
Your tracking list is empty




NASA's NSSDC Master Catalog

Two Line Element Set (TLE):
1 39423U 13066H   19077.42603183 -.00000023  00000-0  55131-5 0  9994
2 39423  97.7663  25.9282 0174358 241.1231 117.2374 14.53021686282059
Source of the keplerian elements: AFSPC